{"data":{"norad_id":69897,"epoch":"2026-09-19T23:29:48.514272Z","epoch_age_seconds":66680,"freshness":"FRESH","line1":"1 69897U 26156AE  26262.97903373  .00000904  00000+0  97256-4 0  9993","line2":"2 69897  97.7484 162.0999 0000445 274.3948  85.7219 14.90883599 11129","mean_motion":14.90883599,"eccentricity":4.45e-5,"inclination_deg":97.7484,"raan_deg":162.0999,"arg_perigee_deg":274.3948,"mean_anomaly_deg":85.7219,"bstar":9.7256e-5,"rev_number":1112,"period_min":96.587017320861,"perigee_km":594.8687503467,"apogee_km":595.4893754763,"semimajor_km":6973.3160629115,"source":"CELESTRAK","updated_at":"2026-09-20T09:00:25.170574Z"}}